Orbital Elements at Epoch 2459000.5 (2020-May-31.0) TDB
Reference: JPL 129 (heliocentric ecliptic J2000)
Element | Value | Uncertainty (1-sigma) | Units |
e | .4305835405719646 | 1.6462e-09 | |
a | 1.15707221047198 | 4.1265e-09 | au |
q | .6588559613895252 | 2.5782e-09 | au |
i | .3402401203407768 | 1.1612e-06 | deg |
node | 35.9217844119912 | 4.0664e-05 | deg |
peri | 273.5761684538976 | 4.0638e-05 | deg |
M | 2.183501771183181 | 1.4718e-05 | deg |
tp | 2458997.742660962500 (2020-May-28.24266096) | 1.8571e-05 | TDB |
period | 454.6101434862745 1.24 | 2.4319e-06 6.658e-09 | d yr |
n | .7918873020282028 | 4.2362e-09 | deg/d |
Q | 1.655288459554434 | 5.9033e-09 | au |
|
| | Orbit Determination Parameters
Additional Information
|